Total_Precipitation_Accumulation
1.35 1.31 1.17 1.14 1.07 0.94 0.89 0.84 0.77 0.71 0.64 0.57 0.49 0.45 0.43 0.43 0.41 0.43 0.39 0.34 0.41 0.65 0.95 1.11 1.13 1.19 1.23 1.28 1.28 1.22 1.14 1.09 1.01 0.92 0.85 0.79 0.80 0.81 0.82 0.83 0.83 0.85 0.86
1.49 1.36 1.24 1.19 1.14 1.02 0.92 0.91 0.84 0.81 0.75 0.68 0.60 0.52 0.45 0.43 0.41 0.42 0.42 0.39 0.38 0.47 0.70 0.95 1.11 1.28 1.46 1.56 1.51 1.42 1.30 1.26 1.21 1.12 1.01 0.90 0.86 0.85 0.85 0.85 0.83 0.84 0.88
1.67 1.58 1.38 1.24 1.18 1.18 1.16 1.11 1.06 0.93 0.82 0.75 0.70 0.64 0.56 0.52 0.47 0.42 0.42 0.41 0.40 0.39 0.49 0.73 0.97 1.19 1.42 1.62 1.65 1.59 1.49 1.37 1.34 1.29 1.19 1.07 0.96 0.90 0.89 0.88 0.88 0.89 0.91
1.89 1.80 1.64 1.44 1.37 1.38 1.36 1.26 1.15 1.09 0.93 0.80 0.73 0.69 0.63 0.58 0.51 0.46 0.43 0.39 0.37 0.34 0.39 0.54 0.72 0.96 1.23 1.43 1.60 1.65 1.60 1.47 1.37 1.34 1.24 1.15 1.10 1.07 1.04 1.02 0.99 1.01 1.03
2.11 1.94 1.74 1.63 1.63 1.59 1.48 1.39 1.24 1.24 1.18 0.99 0.83 0.75 0.71 0.66 0.57 0.52 0.48 0.44 0.40 0.35 0.35 0.42 0.51 0.60 0.84 1.15 1.42 1.67 1.76 1.68 1.56 1.47 1.39 1.30 1.26 1.25 1.23 1.21 1.17 1.17 1.23
2.48 2.30 1.96 1.80 1.82 1.81 1.72 1.60 1.51 1.40 1.34 1.32 1.16 0.90 0.76 0.72 0.68 0.60 0.54 0.49 0.45 0.40 0.36 0.38 0.43 0.45 0.54 0.77 1.11 1.46 1.74 1.85 1.77 1.66 1.58 1.52 1.47 1.43 1.44 1.46 1.44 1.43 1.46
2.58 2.65 2.37 2.12 2.06 2.01 1.97 1.92 1.88 1.80 1.60 1.56 1.54 1.26 0.96 0.80 0.75 0.66 0.61 0.60 0.54 0.50 0.47 0.45 0.46 0.47 0.51 0.65 0.84 1.04 1.34 1.67 1.83 1.83 1.75 1.70 1.67 1.67 1.72 1.75 1.74 1.68 1.67
2.67 2.70 2.73 2.53 2.25 2.17 2.18 2.17 2.08 1.93 1.86 1.81 1.75 1.66 1.45 1.22 0.93 0.76 0.71 0.67 0.63 0.61 0.59 0.57 0.57 0.57 0.57 0.65 0.71 0.78 0.93 1.26 1.61 1.85 1.89 1.83 1.80 1.80 1.91 2.04 2.11 2.09 2.02
2.78 2.72 2.67 2.68 2.56 2.39 2.28 2.30 2.37 2.34 2.19 2.08 1.97 2.02 1.76 1.44 1.15 0.93 0.85 0.80 0.79 0.78 0.73 0.71 0.71 0.71 0.69 0.69 0.66 0.68 0.74 0.93 1.27 1.71 2.04 2.16 2.12 2.13 2.22 2.32 2.39 2.48 2.45
2.84 2.76 2.76 2.74 2.68 2.58 2.42 2.40 2.47 2.53 2.56 2.46 2.29 2.10 1.87 1.56 1.44 1.20 0.97 0.95 1.00 0.99 0.95 0.89 0.85 0.83 0.81 0.79 0.77 0.77 0.80 0.86 1.13 1.59 2.10 2.45 2.58 2.71 2.88 2.91 2.99 3.08 3.00
2.95 2.85 2.79 2.79 2.79 2.70 2.61 2.57 2.57 2.59 2.60 2.57 2.50 2.31 2.13 1.81 1.56 1.47 1.25 1.09 1.14 1.11 1.10 1.06 0.98 0.93 0.91 0.88 0.85 0.90 1.03 1.05 1.25 1.60 2.10 2.64 2.98 3.19 3.38 3.47 3.56 3.61 3.62
2.80 2.74 2.76 2.72 2.69 2.67 2.57 2.52 2.54 2.54 2.56 2.50 2.40 2.27 2.18 2.02 1.78 1.69 1.53 1.31 1.30 1.27 1.27 1.23 1.16 1.08 1.02 0.96 0.94 1.14 1.14 1.17 1.33 1.60 2.02 2.53 2.91 3.18 3.38 3.54 3.66 3.69 3.78
2.50 2.44 2.50 2.56 2.57 2.54 2.54 2.51 2.48 2.39 2.42 2.46 2.36 2.21 2.06 1.84 1.71 1.78 1.78 1.59 1.43 1.29 1.30 1.31 1.27 1.27 1.24 1.22 1.22 1.37 1.28 1.31 1.37 1.60 1.95 2.33 2.48 2.58 2.74 2.92 3.17 3.31 3.40
2.30 2.29 2.33 2.41 2.49 2.53 2.50 2.52 2.48 2.36 2.30 2.28 2.27 2.21 2.13 1.94 1.76 1.71 1.74 1.84 1.80 1.55 1.37 1.26 1.22 1.33 1.41 1.45 1.54 1.65 1.39 1.54 1.51 1.55 1.76 1.97 2.04 1.99 2.08 2.31 2.58 2.79 2.94
2.17 2.21 2.33 2.33 2.31 2.37 2.37 2.36 2.36 2.23 2.14 2.09 2.04 2.07 2.07 1.97 1.89 1.79 1.75 1.87 2.15 2.13 1.74 1.42 1.37 1.43 1.53 1.57 1.71 1.57 1.34 1.54 1.60 1.55 1.60 1.65 1.67 1.66 1.68 1.83 2.02 2.22 2.34
1.98 2.00 2.09 2.19 2.19 2.18 2.24 2.30 2.19 2.05 1.98 1.87 1.78 1.82 1.86 1.87 1.92 1.92 1.91 1.92 2.05 2.25 2.07 1.56 1.42 1.44 1.53 1.56 1.69 1.52 1.41 1.61 1.52 1.47 1.47 1.47 1.44 1.44 1.46 1.53 1.68 1.84 2.00
1.83 1.80 1.86 1.92 1.93 1.90 1.93 2.02 2.03 1.97 1.93 1.85 1.75 1.66 1.61 1.66 1.80 1.87 1.95 1.98 2.01 2.12 2.12 1.67 1.39 1.35 1.43 1.43 1.41 1.31 1.30 1.32 1.29 1.42 1.36 1.32 1.32 1.32 1.32 1.37 1.46 1.57 1.70
1.73 1.70 1.73 1.79 1.79 1.77 1.75 1.77 1.77 1.77 1.82 1.82 1.79 1.75 1.66 1.64 1.77 1.86 1.96 1.99 1.94 1.88 1.90 1.73 1.43 1.30 1.29 1.25 1.22 1.19 1.15 1.14 1.13 1.35 1.35 1.30 1.29 1.27 1.22 1.24 1.32 1.40 1.50
1.66 1.69 1.64 1.67 1.68 1.70 1.74 1.73 1.71 1.70 1.67 1.68 1.75 1.82 1.77 1.78 1.81 1.79 1.79 1.78 1.72 1.64 1.58 1.55 1.39 1.25 1.22 1.22 1.25 1.19 1.10 1.05 1.02 1.16 1.22 1.23 1.29 1.31 1.26 1.25 1.30 1.33 1.34
1.52 1.59 1.57 1.54 1.58 1.63 1.69 1.71 1.77 1.82 1.80 1.74 1.73 1.78 1.79 1.80 1.75 1.74 1.72 1.65 1.60 1.59 1.54 1.52 1.44 1.31 1.23 1.20 1.26 1.26 1.19 1.08 1.02 0.98 1.10 1.12 1.20 1.29 1.30 1.20 1.12 1.13 1.13
1.45 1.49 1.53 1.51 1.52 1.61 1.71 1.75 1.75 1.82 1.91 1.89 1.81 1.74 1.70 1.79 1.78 1.73 1.70 1.67 1.70 1.76 1.73 1.69 1.58 1.42 1.25 1.17 1.15 1.09 1.13 1.11 1.07 1.00 1.05 1.03 1.02 0.99 1.03 1.12 1.14 1.14 1.17
1.47 1.50 1.56 1.60 1.60 1.64 1.96 2.02 1.92 1.87 1.89 1.86 1.78 1.67 1.60 1.67 1.65 1.70 1.73 1.73 1.81 1.90 1.98 1.91 1.70 1.44 1.14 0.99 0.98 1.11 1.25 1.37 1.30 1.01 1.01 0.96 0.91 0.97 0.94 0.96 1.13 1.17 1.18
1.56 1.63 1.70 1.74 1.77 1.83 1.98 1.88 1.88 1.73 1.69 1.66 1.57 1.48 1.41 1.36 1.42 1.28 1.41 1.56 1.59 1.71 1.78 1.71 1.56 1.24 1.07 1.00 1.16 1.33 1.32 1.33 1.18 0.99 1.12 1.18 1.03 0.99 0.93 1.01 1.17 1.08 1.07
1.67 1.76 1.85 1.86 1.81 1.83 1.82 1.63 1.63 1.50 1.41 1.34 1.29 1.26 1.22 1.18 1.18 1.24 1.28 1.37 1.30 1.24 1.20 1.15 1.14 1.09 1.09 1.14 1.33 1.53 1.54 1.49 1.25 1.08 1.13 1.30 1.13 1.03 0.93 0.97 1.12 1.06 1.05
1.68 1.70 1.71 1.66 1.56 1.50 1.52 1.37 1.31 1.21 1.23 1.18 1.10 1.08 1.10 1.06 1.23 1.45 1.46 1.43 1.25 1.12 1.14 1.17 1.22 1.27 1.38 1.42 1.45 1.59 1.71 1.80 1.64 1.27 1.11 1.16 1.06 1.00 0.99 0.97 1.02 1.10 1.04
1.43 1.33 1.25 1.20 1.13 1.06 1.13 1.17 1.19 1.06 1.06 1.05 1.02 1.02 1.15 1.15 1.34 1.52 1.46 1.47 1.35 1.12 1.10 1.13 1.12 1.11 1.10 1.18 1.36 1.37 1.61 1.99 1.81 1.50 1.10 1.18 1.21 1.29 1.51 1.12 0.97 0.96 0.97